Year,Month,Day,Hour,Minute,Value (Times are PST for temperature in C)
2018,07,12,00,00,17.50
2018,07,12,00,01,17.50
2018,07,12,00,02,17.50
2018,07,12,00,03,17.50
2018,07,12,00,04,17.40
2018,07,12,00,05,17.40
2018,07,12,00,06,17.40
2018,07,12,00,07,17.40
2018,07,12,00,08,17.40
2018,07,12,00,09,17.30
2018,07,12,00,10,17.30
2018,07,12,00,11,17.30
2018,07,12,00,12,17.30
2018,07,12,00,13,17.30
2018,07,12,00,14,17.30
2018,07,12,00,15,17.30
2018,07,12,00,16,17.30
2018,07,12,00,17,17.30
2018,07,12,00,18,17.30
2018,07,12,00,19,17.30
2018,07,12,00,20,17.20
2018,07,12,00,21,17.20
2018,07,12,00,22,17.20
2018,07,12,00,23,17.20
2018,07,12,00,24,17.10
2018,07,12,00,25,17.10
2018,07,12,00,26,17.10
2018,07,12,00,27,17.10
2018,07,12,00,28,17.00
2018,07,12,00,29,17.00
2018,07,12,00,30,17.00
2018,07,12,00,31,17.00
2018,07,12,00,32,17.00
2018,07,12,00,33,16.90
2018,07,12,00,34,16.90
2018,07,12,00,35,16.90
2018,07,12,00,36,16.80
2018,07,12,00,37,16.80
2018,07,12,00,38,16.80
2018,07,12,00,39,16.70
2018,07,12,00,40,16.70
2018,07,12,00,41,16.70
2018,07,12,00,42,16.70
2018,07,12,00,43,16.70
2018,07,12,00,44,16.70
2018,07,12,00,45,16.70
2018,07,12,00,46,16.70
2018,07,12,00,47,16.70
2018,07,12,00,48,16.70
2018,07,12,00,49,16.60
2018,07,12,00,50,16.60
2018,07,12,00,51,16.60
2018,07,12,00,52,16.60
2018,07,12,00,53,16.60
2018,07,12,00,54,16.60
2018,07,12,00,55,16.60
2018,07,12,00,56,16.50
2018,07,12,00,57,16.40
2018,07,12,00,58,16.40
2018,07,12,00,59,16.40
2018,07,12,01,00,16.40
2018,07,12,01,01,16.40
2018,07,12,01,02,16.40
2018,07,12,01,03,16.40
2018,07,12,01,04,16.40
2018,07,12,01,05,16.40
2018,07,12,01,06,16.40
2018,07,12,01,07,16.40
2018,07,12,01,08,16.40
2018,07,12,01,09,16.40
2018,07,12,01,10,16.40
2018,07,12,01,11,16.40
2018,07,12,01,12,16.40
2018,07,12,01,13,16.40
2018,07,12,01,14,16.40
2018,07,12,01,15,16.40
2018,07,12,01,16,16.40
2018,07,12,01,17,16.40
2018,07,12,01,18,16.40
2018,07,12,01,19,16.40
2018,07,12,01,20,16.40
2018,07,12,01,21,16.40
2018,07,12,01,22,16.40
2018,07,12,01,23,16.40
2018,07,12,01,24,16.40
2018,07,12,01,25,16.40
2018,07,12,01,26,16.40
2018,07,12,01,27,16.30
2018,07,12,01,28,16.30
2018,07,12,01,29,16.30
2018,07,12,01,30,16.30
2018,07,12,01,31,16.30
2018,07,12,01,32,16.30
2018,07,12,01,33,16.30
2018,07,12,01,34,16.30
2018,07,12,01,35,16.20
2018,07,12,01,36,16.20
2018,07,12,01,37,16.20
2018,07,12,01,38,16.10
2018,07,12,01,39,16.10
2018,07,12,01,40,16.10
2018,07,12,01,41,16.10
2018,07,12,01,42,16.10
2018,07,12,01,43,16.00
2018,07,12,01,44,15.90
2018,07,12,01,45,15.90
2018,07,12,01,46,15.80
2018,07,12,01,47,15.80
2018,07,12,01,48,15.80
2018,07,12,01,49,15.80
2018,07,12,01,50,15.70
2018,07,12,01,51,15.60
2018,07,12,01,52,15.60
2018,07,12,01,53,15.50
2018,07,12,01,54,15.50
2018,07,12,01,55,15.40
2018,07,12,01,56,15.40
2018,07,12,01,57,15.40
2018,07,12,01,58,15.30
2018,07,12,01,59,15.30
2018,07,12,02,00,15.30
2018,07,12,02,01,15.30
2018,07,12,02,02,15.30
2018,07,12,02,03,15.30
2018,07,12,02,04,15.20
2018,07,12,02,05,15.20
2018,07,12,02,06,15.10
2018,07,12,02,07,15.10
2018,07,12,02,08,15.00
2018,07,12,02,09,15.00
2018,07,12,02,10,15.00
2018,07,12,02,11,15.00
2018,07,12,02,12,15.00
2018,07,12,02,13,15.00
2018,07,12,02,14,15.00
2018,07,12,02,15,15.00
2018,07,12,02,16,15.00
2018,07,12,02,17,15.00
2018,07,12,02,18,15.00
2018,07,12,02,19,14.90
2018,07,12,02,20,14.80
2018,07,12,02,21,14.80
2018,07,12,02,22,14.70
2018,07,12,02,23,14.60
2018,07,12,02,24,14.60
2018,07,12,02,25,14.50
2018,07,12,02,26,14.40
2018,07,12,02,27,14.40
2018,07,12,02,28,14.40
2018,07,12,02,29,14.30
2018,07,12,02,30,14.30
2018,07,12,02,31,14.30
2018,07,12,02,32,14.20
2018,07,12,02,33,14.20
2018,07,12,02,34,14.20
2018,07,12,02,35,14.20
2018,07,12,02,36,14.20
2018,07,12,02,37,14.20
2018,07,12,02,38,14.20
2018,07,12,02,39,14.20
2018,07,12,02,40,14.20
2018,07,12,02,41,14.20
2018,07,12,02,42,14.20
2018,07,12,02,43,14.20
2018,07,12,02,44,14.20
2018,07,12,02,45,14.20
2018,07,12,02,46,14.20
2018,07,12,02,47,14.20
2018,07,12,02,48,14.20
2018,07,12,02,49,14.20
2018,07,12,02,50,14.20
2018,07,12,02,51,14.20
2018,07,12,02,52,14.20
2018,07,12,02,53,14.20
2018,07,12,02,54,14.20
2018,07,12,02,55,14.20
2018,07,12,02,56,14.20
2018,07,12,02,57,14.20
2018,07,12,02,58,14.20
2018,07,12,02,59,14.20
2018,07,12,03,00,14.20
2018,07,12,03,01,14.20
2018,07,12,03,02,14.20
2018,07,12,03,03,14.20
2018,07,12,03,04,14.20
2018,07,12,03,05,14.20
2018,07,12,03,06,14.20
2018,07,12,03,07,14.20
2018,07,12,03,08,14.10
2018,07,12,03,09,14.10
2018,07,12,03,10,14.10
2018,07,12,03,11,14.10
2018,07,12,03,12,14.10
2018,07,12,03,13,14.00
2018,07,12,03,14,14.00
2018,07,12,03,15,14.00
2018,07,12,03,16,14.00
2018,07,12,03,17,14.00
2018,07,12,03,18,14.00
2018,07,12,03,19,14.00
2018,07,12,03,20,14.00
2018,07,12,03,21,14.00
2018,07,12,03,22,14.00
2018,07,12,03,23,14.00
2018,07,12,03,24,14.00
2018,07,12,03,25,14.00
2018,07,12,03,26,14.00
2018,07,12,03,27,14.00
2018,07,12,03,28,14.00
2018,07,12,03,29,14.00
2018,07,12,03,30,14.00
2018,07,12,03,31,14.00
2018,07,12,03,32,14.00
2018,07,12,03,33,14.00
2018,07,12,03,34,14.00
2018,07,12,03,35,14.00
2018,07,12,03,36,14.00
2018,07,12,03,37,14.00
2018,07,12,03,38,14.00
2018,07,12,03,39,14.00
2018,07,12,03,40,14.00
2018,07,12,03,41,14.00
2018,07,12,03,42,14.00
2018,07,12,03,43,14.00
2018,07,12,03,44,14.00
2018,07,12,03,45,14.00
2018,07,12,03,46,14.00
2018,07,12,03,47,14.00
2018,07,12,03,48,14.00
2018,07,12,03,49,14.00
2018,07,12,03,50,14.00
2018,07,12,03,51,14.00
2018,07,12,03,52,14.00
2018,07,12,03,53,14.00
2018,07,12,03,54,14.00
2018,07,12,03,55,14.00
2018,07,12,03,56,14.00
2018,07,12,03,57,14.00
2018,07,12,03,58,14.00
2018,07,12,03,59,14.00
2018,07,12,04,00,14.00
2018,07,12,04,01,14.00
2018,07,12,04,02,14.00
2018,07,12,04,03,14.10
2018,07,12,04,04,14.10
2018,07,12,04,05,14.10
2018,07,12,04,06,14.10
2018,07,12,04,07,14.10
2018,07,12,04,08,14.10
2018,07,12,04,09,14.10
2018,07,12,04,10,14.10
2018,07,12,04,11,14.10
2018,07,12,04,12,14.10
2018,07,12,04,13,14.10
2018,07,12,04,14,14.10
2018,07,12,04,15,14.10
2018,07,12,04,16,14.10
2018,07,12,04,17,14.10
2018,07,12,04,18,14.10
2018,07,12,04,19,14.10
2018,07,12,04,20,14.10
2018,07,12,04,21,14.20
2018,07,12,04,22,14.20
2018,07,12,04,23,14.20
2018,07,12,04,24,14.20
2018,07,12,04,25,14.20
2018,07,12,04,26,14.20
2018,07,12,04,27,14.20
2018,07,12,04,28,14.20
2018,07,12,04,29,14.20
2018,07,12,04,30,14.20
2018,07,12,04,31,14.20
2018,07,12,04,32,14.10
2018,07,12,04,33,14.00
2018,07,12,04,34,14.00
2018,07,12,04,35,13.90
2018,07,12,04,36,13.90
2018,07,12,04,37,13.90
2018,07,12,04,38,13.90
2018,07,12,04,39,13.90
2018,07,12,04,40,13.90
2018,07,12,04,41,13.80
2018,07,12,04,42,13.70
2018,07,12,04,43,13.70
2018,07,12,04,44,13.70
2018,07,12,04,45,13.70
2018,07,12,04,46,13.70
2018,07,12,04,47,13.70
2018,07,12,04,48,13.70
2018,07,12,04,49,13.70
2018,07,12,04,50,13.70
2018,07,12,04,51,13.80
2018,07,12,04,52,13.80
2018,07,12,04,53,13.80
2018,07,12,04,54,13.80
2018,07,12,04,55,13.80
2018,07,12,04,56,13.80
2018,07,12,04,57,13.80
2018,07,12,04,58,13.80
2018,07,12,04,59,13.80
2018,07,12,05,00,13.80
2018,07,12,05,01,13.80
2018,07,12,05,02,13.90
2018,07,12,05,03,13.90
2018,07,12,05,04,13.90
2018,07,12,05,05,13.90
2018,07,12,05,06,13.90
2018,07,12,05,07,13.90
2018,07,12,05,08,13.90
2018,07,12,05,09,13.80
2018,07,12,05,10,13.80
2018,07,12,05,11,13.80
2018,07,12,05,12,13.80
2018,07,12,05,13,13.80
2018,07,12,05,14,13.80
2018,07,12,05,15,13.80
2018,07,12,05,16,13.80
2018,07,12,05,17,13.80
2018,07,12,05,18,13.80
2018,07,12,05,19,13.80
2018,07,12,05,20,13.70
2018,07,12,05,21,13.70
2018,07,12,05,22,13.70
2018,07,12,05,23,13.70
2018,07,12,05,24,13.70
2018,07,12,05,25,13.70
2018,07,12,05,26,13.70
2018,07,12,05,27,13.70
2018,07,12,05,28,13.70
2018,07,12,05,29,13.60
2018,07,12,05,30,13.60
2018,07,12,05,31,13.60
2018,07,12,05,32,13.60
2018,07,12,05,33,13.60
2018,07,12,05,34,13.60
2018,07,12,05,35,13.60
2018,07,12,05,36,13.60
2018,07,12,05,37,13.60
2018,07,12,05,38,13.60
2018,07,12,05,39,13.60
2018,07,12,05,40,13.50
2018,07,12,05,41,13.50
2018,07,12,05,42,13.50
2018,07,12,05,43,13.50
2018,07,12,05,44,13.50
2018,07,12,05,45,13.50
2018,07,12,05,46,13.50
2018,07,12,05,47,13.50
2018,07,12,05,48,13.50
2018,07,12,05,49,13.50
2018,07,12,05,50,13.50
2018,07,12,05,51,13.50
2018,07,12,05,52,13.50
2018,07,12,05,53,13.50
2018,07,12,05,54,13.50
2018,07,12,05,55,13.50
2018,07,12,05,56,13.50
2018,07,12,05,57,13.50
2018,07,12,05,58,13.50
2018,07,12,05,59,13.40
2018,07,12,06,00,13.40
2018,07,12,06,01,13.40
2018,07,12,06,02,13.40
2018,07,12,06,03,13.40
2018,07,12,06,04,13.40
2018,07,12,06,05,13.40
2018,07,12,06,06,13.40
2018,07,12,06,07,13.40
2018,07,12,06,08,13.40
2018,07,12,06,09,13.40
2018,07,12,06,10,13.40
2018,07,12,06,11,13.40
2018,07,12,06,12,13.40
2018,07,12,06,13,13.50
2018,07,12,06,14,13.50
2018,07,12,06,15,13.50
2018,07,12,06,16,13.50
2018,07,12,06,17,13.60
2018,07,12,06,18,13.60
2018,07,12,06,19,13.60
2018,07,12,06,20,13.70
2018,07,12,06,21,13.70
2018,07,12,06,22,13.70
2018,07,12,06,23,13.70
2018,07,12,06,24,13.80
2018,07,12,06,25,13.80
2018,07,12,06,26,13.90
2018,07,12,06,27,14.00
2018,07,12,06,28,14.10
2018,07,12,06,29,14.20
2018,07,12,06,30,14.40
2018,07,12,06,31,14.50
2018,07,12,06,32,14.60
2018,07,12,06,33,14.70
2018,07,12,06,34,14.80
2018,07,12,06,35,14.90
2018,07,12,06,36,14.90
2018,07,12,06,37,15.00
2018,07,12,06,38,15.10
2018,07,12,06,39,15.30
2018,07,12,06,40,15.30
2018,07,12,06,41,15.50
2018,07,12,06,42,15.60
2018,07,12,06,43,15.80
2018,07,12,06,44,15.90
2018,07,12,06,45,16.10
2018,07,12,06,46,16.20
2018,07,12,06,47,16.30
2018,07,12,06,48,16.40
2018,07,12,06,49,16.50
2018,07,12,06,50,16.60
2018,07,12,06,51,16.70
2018,07,12,06,52,16.70
2018,07,12,06,53,16.80
2018,07,12,06,54,16.80
2018,07,12,06,55,16.90
2018,07,12,06,56,16.90
2018,07,12,06,57,17.00
2018,07,12,06,58,17.10
2018,07,12,06,59,17.10
2018,07,12,07,00,17.30
2018,07,12,07,01,17.30
2018,07,12,07,02,17.30
2018,07,12,07,03,17.30
2018,07,12,07,04,17.40
2018,07,12,07,05,17.50
2018,07,12,07,06,17.50
2018,07,12,07,07,17.60
2018,07,12,07,08,17.70
2018,07,12,07,09,17.80
2018,07,12,07,10,17.90
2018,07,12,07,11,17.90
2018,07,12,07,12,17.90
2018,07,12,07,13,18.00
2018,07,12,07,14,18.10
2018,07,12,07,15,18.20
2018,07,12,07,16,18.30
2018,07,12,07,17,18.50
2018,07,12,07,18,18.50
2018,07,12,07,19,18.60
2018,07,12,07,20,18.60
2018,07,12,07,21,18.60
2018,07,12,07,22,18.60
2018,07,12,07,23,18.60
2018,07,12,07,24,18.60
2018,07,12,07,25,18.60
2018,07,12,07,26,18.60
2018,07,12,07,27,18.70
2018,07,12,07,28,18.80
2018,07,12,07,29,18.80
2018,07,12,07,30,18.90
2018,07,12,07,31,18.90
2018,07,12,07,32,18.90
2018,07,12,07,33,18.80
2018,07,12,07,34,18.80
2018,07,12,07,35,18.80
2018,07,12,07,36,18.80
2018,07,12,07,37,18.70
2018,07,12,07,38,18.70
2018,07,12,07,39,18.70
2018,07,12,07,40,18.70
2018,07,12,07,41,18.70
2018,07,12,07,42,18.70
2018,07,12,07,43,18.70
2018,07,12,07,44,18.60
2018,07,12,07,45,18.60
2018,07,12,07,46,18.60
2018,07,12,07,47,18.60
2018,07,12,07,48,18.60
2018,07,12,07,49,18.70
2018,07,12,07,50,18.70
2018,07,12,07,51,18.70
2018,07,12,07,52,18.70
2018,07,12,07,53,18.60
2018,07,12,07,54,18.70
2018,07,12,07,55,18.70
2018,07,12,07,56,18.70
2018,07,12,07,57,18.80
2018,07,12,07,58,18.80
2018,07,12,07,59,18.80
2018,07,12,08,00,18.80
2018,07,12,08,01,18.80
2018,07,12,08,02,18.80
2018,07,12,08,03,18.80
2018,07,12,08,04,18.80
2018,07,12,08,05,18.80
2018,07,12,08,06,18.70
2018,07,12,08,07,18.70
2018,07,12,08,08,18.70
2018,07,12,08,09,18.70
2018,07,12,08,10,18.70
2018,07,12,08,11,18.70
2018,07,12,08,12,18.70
2018,07,12,08,13,18.70
2018,07,12,08,14,18.80
2018,07,12,08,15,18.80
2018,07,12,08,16,18.90
2018,07,12,08,17,18.90
2018,07,12,08,18,18.90
2018,07,12,08,19,19.00
2018,07,12,08,20,19.10
2018,07,12,08,21,19.10
2018,07,12,08,22,19.10
2018,07,12,08,23,19.10
2018,07,12,08,24,19.10
2018,07,12,08,25,19.10
2018,07,12,08,26,19.20
2018,07,12,08,27,19.30
2018,07,12,08,28,19.40
2018,07,12,08,29,19.40
2018,07,12,08,30,19.40
2018,07,12,08,31,19.50
2018,07,12,08,32,19.50
2018,07,12,08,33,19.50
2018,07,12,08,34,19.60
2018,07,12,08,35,19.70
2018,07,12,08,36,19.70
2018,07,12,08,37,19.60
2018,07,12,08,38,19.60
2018,07,12,08,39,19.50
2018,07,12,08,40,19.50
2018,07,12,08,41,19.50
2018,07,12,08,42,19.50
2018,07,12,08,43,19.50
2018,07,12,08,44,19.50
2018,07,12,08,45,19.40
2018,07,12,08,46,19.40
2018,07,12,08,47,19.50
2018,07,12,08,48,19.50
2018,07,12,08,49,19.40
2018,07,12,08,50,19.40
2018,07,12,08,51,19.30
2018,07,12,08,52,19.30
2018,07,12,08,53,19.30
2018,07,12,08,54,19.30
2018,07,12,08,55,19.40
2018,07,12,08,56,19.30
2018,07,12,08,57,19.30
2018,07,12,08,58,19.40
2018,07,12,08,59,19.40
2018,07,12,09,00,19.50
2018,07,12,09,01,19.60
2018,07,12,09,02,19.70
2018,07,12,09,03,19.80
2018,07,12,09,04,19.80
2018,07,12,09,05,19.80
2018,07,12,09,06,19.80
2018,07,12,09,07,19.80
2018,07,12,09,08,19.70
2018,07,12,09,09,19.70
2018,07,12,09,10,19.60
2018,07,12,09,11,19.70
2018,07,12,09,12,19.70
2018,07,12,09,13,19.70
2018,07,12,09,14,19.70
2018,07,12,09,15,19.70
2018,07,12,09,16,19.70
2018,07,12,09,17,19.80
2018,07,12,09,18,19.90
2018,07,12,09,19,19.90
2018,07,12,09,20,19.90
2018,07,12,09,21,19.90
2018,07,12,09,22,19.90
2018,07,12,09,23,19.80
2018,07,12,09,24,19.80
2018,07,12,09,25,19.90
2018,07,12,09,26,19.90
2018,07,12,09,27,19.90
2018,07,12,09,28,20.00
2018,07,12,09,29,20.10
2018,07,12,09,30,20.10
2018,07,12,09,31,20.20
2018,07,12,09,32,20.20
2018,07,12,09,33,20.20
2018,07,12,09,34,20.20
2018,07,12,09,35,20.30
2018,07,12,09,36,20.30
2018,07,12,09,37,20.30
2018,07,12,09,38,20.30
2018,07,12,09,39,20.30
2018,07,12,09,40,20.30
2018,07,12,09,41,20.30
2018,07,12,09,42,20.30
2018,07,12,09,43,20.40
2018,07,12,09,44,20.40
2018,07,12,09,45,20.40
2018,07,12,09,46,20.40
2018,07,12,09,47,20.40
2018,07,12,09,48,20.30
2018,07,12,09,49,20.30
2018,07,12,09,50,20.30
2018,07,12,09,51,20.20
2018,07,12,09,52,20.20
2018,07,12,09,53,20.20
2018,07,12,09,54,20.20
2018,07,12,09,55,20.30
2018,07,12,09,56,20.30
2018,07,12,09,57,20.30
2018,07,12,09,58,20.30
2018,07,12,09,59,20.20
2018,07,12,10,00,20.20
2018,07,12,10,01,20.20
2018,07,12,10,02,20.20
2018,07,12,10,03,20.20
2018,07,12,10,04,20.20
2018,07,12,10,05,20.20
2018,07,12,10,06,20.20
2018,07,12,10,07,20.20
2018,07,12,10,08,20.30
2018,07,12,10,09,20.30
2018,07,12,10,10,20.40
2018,07,12,10,11,20.50
2018,07,12,10,12,20.60
2018,07,12,10,13,20.70
2018,07,12,10,14,20.80
2018,07,12,10,15,20.90
2018,07,12,10,16,20.90
2018,07,12,10,17,20.90
2018,07,12,10,18,21.00
2018,07,12,10,19,21.00
2018,07,12,10,20,20.90
2018,07,12,10,21,20.80
2018,07,12,10,22,20.70
2018,07,12,10,23,20.70
2018,07,12,10,24,20.60
2018,07,12,10,25,20.50
2018,07,12,10,26,20.30
2018,07,12,10,27,20.20
2018,07,12,10,28,20.10
2018,07,12,10,29,19.90
2018,07,12,10,30,19.90
2018,07,12,10,31,19.80
2018,07,12,10,32,19.80
2018,07,12,10,33,19.80
2018,07,12,10,34,19.90
2018,07,12,10,35,19.90
2018,07,12,10,36,20.10
2018,07,12,10,37,20.20
2018,07,12,10,38,20.40
2018,07,12,10,39,20.50
2018,07,12,10,40,20.70
2018,07,12,10,41,20.80
2018,07,12,10,42,21.00
2018,07,12,10,43,21.00
2018,07,12,10,44,21.10
2018,07,12,10,45,21.10
2018,07,12,10,46,21.20
2018,07,12,10,47,21.20
2018,07,12,10,48,21.20
2018,07,12,10,49,21.20
2018,07,12,10,50,21.20
2018,07,12,10,51,21.20
2018,07,12,10,52,21.30
2018,07,12,10,53,21.30
2018,07,12,10,54,21.30
2018,07,12,10,55,21.30
2018,07,12,10,56,21.30
2018,07,12,10,57,21.30
2018,07,12,10,58,21.30
2018,07,12,10,59,21.10
2018,07,12,11,00,21.00
2018,07,12,11,01,20.90
2018,07,12,11,02,20.70
2018,07,12,11,03,20.70
2018,07,12,11,04,20.70
2018,07,12,11,05,20.80
2018,07,12,11,06,20.80
2018,07,12,11,07,20.80
2018,07,12,11,08,20.80
2018,07,12,11,09,20.80
2018,07,12,11,10,20.80
2018,07,12,11,11,20.70
2018,07,12,11,12,20.70
2018,07,12,11,13,20.70
2018,07,12,11,14,20.70
2018,07,12,11,15,20.80
2018,07,12,11,16,20.80
2018,07,12,11,17,20.90
2018,07,12,11,18,20.90
2018,07,12,11,19,20.90
2018,07,12,11,20,20.80
2018,07,12,11,21,20.80
2018,07,12,11,22,20.90
2018,07,12,11,23,21.00
2018,07,12,11,24,21.00
2018,07,12,11,25,21.00
2018,07,12,11,26,21.20
2018,07,12,11,27,21.30
2018,07,12,11,28,21.20
2018,07,12,11,29,21.20
2018,07,12,11,30,21.20
2018,07,12,11,31,21.20
2018,07,12,11,32,21.00
2018,07,12,11,33,21.00
2018,07,12,11,34,20.90
2018,07,12,11,35,20.90
2018,07,12,11,36,20.90
2018,07,12,11,37,20.80
2018,07,12,11,38,20.90
2018,07,12,11,39,20.90
2018,07,12,11,40,20.80
2018,07,12,11,41,20.60
2018,07,12,11,42,20.50
2018,07,12,11,43,20.50
2018,07,12,11,44,20.40
2018,07,12,11,45,20.20
2018,07,12,11,46,20.20
2018,07,12,11,47,20.10
2018,07,12,11,48,20.10
2018,07,12,11,49,20.10
2018,07,12,11,50,20.10
2018,07,12,11,51,20.10
2018,07,12,11,52,20.10
2018,07,12,11,53,20.20
2018,07,12,11,54,20.20
2018,07,12,11,55,20.20
2018,07,12,11,56,20.30
2018,07,12,11,57,20.30
2018,07,12,11,58,20.30
2018,07,12,11,59,20.30
2018,07,12,12,00,20.40
2018,07,12,12,01,20.40
2018,07,12,12,02,20.30
2018,07,12,12,03,20.40
2018,07,12,12,04,20.50
2018,07,12,12,05,20.60
2018,07,12,12,06,20.70
2018,07,12,12,07,20.70
2018,07,12,12,08,20.80
2018,07,12,12,09,21.10
2018,07,12,12,10,21.30
2018,07,12,12,11,21.30
2018,07,12,12,12,21.30
2018,07,12,12,13,21.30
2018,07,12,12,14,21.50
2018,07,12,12,15,21.60
2018,07,12,12,16,21.70
2018,07,12,12,17,21.70
2018,07,12,12,18,21.60
2018,07,12,12,19,21.60
2018,07,12,12,20,21.60
2018,07,12,12,21,21.70
2018,07,12,12,22,21.80
2018,07,12,12,23,22.00
2018,07,12,12,24,22.10
2018,07,12,12,25,22.00
2018,07,12,12,26,22.00
2018,07,12,12,27,22.00
2018,07,12,12,28,22.10
2018,07,12,12,29,22.10
2018,07,12,12,30,22.10
2018,07,12,12,31,21.90
2018,07,12,12,32,21.70
2018,07,12,12,33,21.70
2018,07,12,12,34,21.70
2018,07,12,12,35,21.80
2018,07,12,12,36,22.00
2018,07,12,12,37,22.10
2018,07,12,12,38,22.20
2018,07,12,12,39,22.30
2018,07,12,12,40,22.30
2018,07,12,12,41,22.10
2018,07,12,12,42,21.80
2018,07,12,12,43,21.60
2018,07,12,12,44,21.60
2018,07,12,12,45,21.60
2018,07,12,12,46,21.60
2018,07,12,12,47,21.70
2018,07,12,12,48,21.90
2018,07,12,12,49,22.20
2018,07,12,12,50,22.30
2018,07,12,12,51,22.40
2018,07,12,12,52,22.60
2018,07,12,12,53,22.70
2018,07,12,12,54,22.70
2018,07,12,12,55,22.70
2018,07,12,12,56,22.70
2018,07,12,12,57,22.60
2018,07,12,12,58,22.50
2018,07,12,12,59,22.30
2018,07,12,13,00,22.30
2018,07,12,13,01,22.20
2018,07,12,13,02,22.20
2018,07,12,13,03,22.00
2018,07,12,13,04,22.00
2018,07,12,13,05,22.20
2018,07,12,13,06,22.30
2018,07,12,13,07,22.40
2018,07,12,13,08,22.40
2018,07,12,13,09,22.40
2018,07,12,13,10,22.40
2018,07,12,13,11,22.60
2018,07,12,13,12,22.60
2018,07,12,13,13,22.60
2018,07,12,13,14,22.70
2018,07,12,13,15,23.00
2018,07,12,13,16,23.10
2018,07,12,13,17,23.20
2018,07,12,13,18,23.30
2018,07,12,13,19,23.50
2018,07,12,13,20,23.60
2018,07,12,13,21,23.70
2018,07,12,13,22,23.70
2018,07,12,13,23,23.70
2018,07,12,13,24,23.60
2018,07,12,13,25,23.60
2018,07,12,13,26,23.60
2018,07,12,13,27,23.60
2018,07,12,13,28,23.50
2018,07,12,13,29,23.40
2018,07,12,13,30,23.40
2018,07,12,13,31,23.40
2018,07,12,13,32,23.40
2018,07,12,13,33,23.40
2018,07,12,13,34,23.60
2018,07,12,13,35,23.60
2018,07,12,13,36,23.50
2018,07,12,13,37,23.30
2018,07,12,13,38,23.20
2018,07,12,13,39,23.10
2018,07,12,13,40,23.00
2018,07,12,13,41,22.90
2018,07,12,13,42,22.90
2018,07,12,13,43,22.90
2018,07,12,13,44,22.90
2018,07,12,13,45,22.90
2018,07,12,13,46,22.90
2018,07,12,13,47,22.80
2018,07,12,13,48,22.80
2018,07,12,13,49,22.70
2018,07,12,13,50,22.70
2018,07,12,13,51,22.80
2018,07,12,13,52,22.80
2018,07,12,13,53,22.90
2018,07,12,13,54,22.90
2018,07,12,13,55,22.90
2018,07,12,13,56,23.00
2018,07,12,13,57,23.10
2018,07,12,13,58,23.20
2018,07,12,13,59,23.20
2018,07,12,14,00,23.20
2018,07,12,14,01,23.20
2018,07,12,14,02,23.20
2018,07,12,14,03,23.20
2018,07,12,14,04,23.10
2018,07,12,14,05,23.10
2018,07,12,14,06,23.20
2018,07,12,14,07,23.20
2018,07,12,14,08,23.20
2018,07,12,14,09,23.30
2018,07,12,14,10,23.30
2018,07,12,14,11,23.40
2018,07,12,14,12,23.50
2018,07,12,14,13,23.60
2018,07,12,14,14,23.60
2018,07,12,14,15,23.70
2018,07,12,14,16,23.80
2018,07,12,14,17,23.90
2018,07,12,14,18,23.90
2018,07,12,14,19,24.10
2018,07,12,14,20,24.10
2018,07,12,14,21,24.10
2018,07,12,14,22,24.10
2018,07,12,14,23,24.10
2018,07,12,14,24,24.00
2018,07,12,14,25,23.90
2018,07,12,14,26,23.90
2018,07,12,14,27,23.80
2018,07,12,14,28,23.80
2018,07,12,14,29,23.90
2018,07,12,14,30,23.90
2018,07,12,14,31,23.80
2018,07,12,14,32,23.80
2018,07,12,14,33,23.80
2018,07,12,14,34,23.90
2018,07,12,14,35,24.00
2018,07,12,14,36,24.10
2018,07,12,14,37,24.20
2018,07,12,14,38,24.30
2018,07,12,14,39,24.50
2018,07,12,14,40,24.60
2018,07,12,14,41,24.60
2018,07,12,14,42,24.50
2018,07,12,14,43,24.50
2018,07,12,14,44,24.50
2018,07,12,14,45,24.50
2018,07,12,14,46,24.40
2018,07,12,14,47,24.20
2018,07,12,14,48,24.00
2018,07,12,14,49,23.90
2018,07,12,14,50,23.70
2018,07,12,14,51,23.60
2018,07,12,14,52,23.60
2018,07,12,14,53,23.60
2018,07,12,14,54,23.60
2018,07,12,14,55,23.60
2018,07,12,14,56,23.70
2018,07,12,14,57,23.70
2018,07,12,14,58,23.70
2018,07,12,14,59,23.60
2018,07,12,15,00,23.60
2018,07,12,15,01,23.60
2018,07,12,15,02,23.70
2018,07,12,15,03,23.70
2018,07,12,15,04,23.80
2018,07,12,15,05,24.00
2018,07,12,15,06,24.30
2018,07,12,15,07,24.50
2018,07,12,15,08,24.80
2018,07,12,15,09,24.90
2018,07,12,15,10,25.10
2018,07,12,15,11,25.10
2018,07,12,15,12,25.20
2018,07,12,15,13,25.20
2018,07,12,15,14,25.30
2018,07,12,15,15,25.40
2018,07,12,15,16,25.40
2018,07,12,15,17,25.50
2018,07,12,15,18,25.50
2018,07,12,15,19,25.60
2018,07,12,15,20,25.70
2018,07,12,15,21,25.80
2018,07,12,15,22,25.90
2018,07,12,15,23,25.90
2018,07,12,15,24,25.90
2018,07,12,15,25,25.90
2018,07,12,15,26,25.80
2018,07,12,15,27,25.80
2018,07,12,15,28,25.80
2018,07,12,15,29,25.80
2018,07,12,15,30,25.80
2018,07,12,15,31,25.90
2018,07,12,15,32,26.00
2018,07,12,15,33,26.10
2018,07,12,15,34,26.00
2018,07,12,15,35,25.90
2018,07,12,15,36,25.80
2018,07,12,15,37,25.70
2018,07,12,15,38,25.70
2018,07,12,15,39,25.70
2018,07,12,15,40,25.50
2018,07,12,15,41,25.30
2018,07,12,15,42,25.10
2018,07,12,15,43,25.10
2018,07,12,15,44,25.20
2018,07,12,15,45,25.00
2018,07,12,15,46,24.90
2018,07,12,15,47,24.80
2018,07,12,15,48,24.80
2018,07,12,15,49,24.90
2018,07,12,15,50,24.90
2018,07,12,15,51,24.90
2018,07,12,15,52,24.80
2018,07,12,15,53,24.80
2018,07,12,15,54,24.80
2018,07,12,15,55,24.80
2018,07,12,15,56,24.70
2018,07,12,15,57,24.50
2018,07,12,15,58,24.40
2018,07,12,15,59,24.20
2018,07,12,16,00,24.30
2018,07,12,16,01,24.30
2018,07,12,16,02,24.50
2018,07,12,16,03,24.70
2018,07,12,16,04,24.80
2018,07,12,16,05,24.90
2018,07,12,16,06,25.00
2018,07,12,16,07,25.10
2018,07,12,16,08,25.10
2018,07,12,16,09,25.10
2018,07,12,16,10,25.10
2018,07,12,16,11,25.00
2018,07,12,16,12,25.00
2018,07,12,16,13,24.90
2018,07,12,16,14,24.80
2018,07,12,16,15,24.90
2018,07,12,16,16,24.90
2018,07,12,16,17,24.90
2018,07,12,16,18,24.80
2018,07,12,16,19,24.80
2018,07,12,16,20,24.60
2018,07,12,16,21,24.50
2018,07,12,16,22,24.50
2018,07,12,16,23,24.60
2018,07,12,16,24,24.60
2018,07,12,16,25,24.70
2018,07,12,16,26,24.70
2018,07,12,16,27,24.70
2018,07,12,16,28,24.60
2018,07,12,16,29,24.60
2018,07,12,16,30,24.60
2018,07,12,16,31,24.60
2018,07,12,16,32,24.50
2018,07,12,16,33,24.50
2018,07,12,16,34,24.50
2018,07,12,16,35,24.50
2018,07,12,16,36,24.40
2018,07,12,16,37,24.40
2018,07,12,16,38,24.40
2018,07,12,16,39,24.40
2018,07,12,16,40,24.50
2018,07,12,16,41,24.50
2018,07,12,16,42,24.60
2018,07,12,16,43,24.70
2018,07,12,16,44,24.70
2018,07,12,16,45,24.70
2018,07,12,16,46,24.60
2018,07,12,16,47,24.60
2018,07,12,16,48,24.70
2018,07,12,16,49,24.80
2018,07,12,16,50,24.80
2018,07,12,16,51,24.90
2018,07,12,16,52,24.90
2018,07,12,16,53,24.90
2018,07,12,16,54,25.00
2018,07,12,16,55,24.90
2018,07,12,16,56,24.90
2018,07,12,16,57,24.90
2018,07,12,16,58,24.90
2018,07,12,16,59,24.80
2018,07,12,17,00,24.70
2018,07,12,17,01,24.60
2018,07,12,17,02,24.50
2018,07,12,17,03,24.50
2018,07,12,17,04,24.40
2018,07,12,17,05,24.40
2018,07,12,17,06,24.40
2018,07,12,17,07,24.50
2018,07,12,17,08,24.50
2018,07,12,17,09,24.40
2018,07,12,17,10,24.50
2018,07,12,17,11,24.60
2018,07,12,17,12,24.60
2018,07,12,17,13,24.60
2018,07,12,17,14,24.60
2018,07,12,17,15,24.60
2018,07,12,17,16,24.60
2018,07,12,17,17,24.50
2018,07,12,17,18,24.60
2018,07,12,17,19,24.50